Tracking 25193 objects as of 18-Jan-2022
HD Live streaming from Space Station
objects crossing your sky now

STARLINK-1916

Track STARLINK-1916 now!
10-day predictions
STARLINK-1916 is classified as:


NORAD ID: 46766
Int'l Code: 2020-074AD
Perigee: 553.2 km
Apogee: 555.6 km
Inclination: 53.1 °
Period: 95.6 minutes
Semi major axis: 6925 km
RCS: Unknown
Launch date: October 24, 2020
Source: United States (US)
Launch site: AIR FORCE EASTERN TEST RANGE (AFETR)
aabbcc
Your satellite tracking list
Your tracking list is empty




NASA's NSSDC Master Catalog

Two Line Element Set (TLE):
1 46766U 20074AD  22017.92523425 -.00005515  00000-0 -35179-3 0  9992
2 46766  53.0536 283.1921 0001757  63.1495 296.9674 15.06379668 68612
Source of the keplerian elements: AFSPC